Weather History for Carroll, IA

Change the Weather History Date:

Monday, December 10, 2012

  Actual Average Record
Temperature  
Mean Temperature 16 °F -  
Max Temperature 26 °F 33 °F 59 °F (1979)
Min Temperature 5 °F 14 °F -9 °F (1958)
Degree Days  
Heating Degree Days 50    
Moisture  
Dew Point 4 °F    
Average Humidity 58    
Maximum Humidity 73    
Minimum Humidity 34    
Precipitation  
Precipitation 0.00 in - - ()
Sea Level Pressure  
Sea Level Pressure 29.95 in    
Wind  
Wind Speed 16 mph (West)    
Max Wind Speed 26 mph    
Max Gust Speed 32 mph    
Visibility 10 miles    
Events      
Averages and records for this station are not official NWS values.
T = Trace of Precipitation, MM = Missing Value Source: NWS Daily Summary

Daily Weather History Graph

Daily Weather History Graph

Search for Another Location

Airport:

Trip Planner

Search our weather history database for the weather conditions in past years. The results will help you decide how hot, cold, wet, or windy it might be!

Date:

Astronomy

Dec. 10, 2012 Rise Set
Actual Time 7:36 AM CST 4:47 PM CST
Civil Twilight 7:05 AM CST 5:19 PM CST
Nautical Twilight 6:30 AM CST 5:54 PM CST
Astronomical Twilight 5:56 AM CST 6:28 PM CST
Moon 4:19 AM CST (12/10) 2:39 PM CST (12/10)
Length of Visible Light 10h 13m
Length of Day
9h 10m
Waning Crescent, 10% of the Moon is Illuminated
Dec 10
Waning Crescent
Dec 13
New
Dec 19
First Quarter
Dec 28
Full
Jan 4
Last Quarter

Hourly Weather History & Observations

Time (CST) Temp. Windchill Dew Point Humidity Pressure Visibility Wind Dir Wind Speed Gust Speed Precip Events Conditions
12:15 AM 15.8 °F -3.4 °F 8.6 °F 73% 29.99 in 10.0 mi NW 26.5 mph - N/A   Overcast
12:35 AM 15.8 °F -2.7 °F 8.6 °F 73% 29.99 in 10.0 mi NW 24.2 mph 32.2 mph N/A   Overcast
12:55 AM 15.8 °F -1.5 °F 8.6 °F 73% 29.99 in 10.0 mi NW 20.7 mph 29.9 mph N/A   Overcast
1:15 AM 15.8 °F -1.1 °F 8.6 °F 73% 29.99 in 10.0 mi NW 19.6 mph 31.1 mph N/A   Overcast
1:35 AM 15.8 °F -0.6 °F 8.6 °F 73% 29.98 in 10.0 mi NW 18.4 mph - N/A   Overcast
1:55 AM 15.8 °F -2.7 °F 8.6 °F 73% 29.98 in 10.0 mi NW 24.2 mph - N/A   Overcast
2:15 AM 15.8 °F -1.9 °F 6.8 °F 68% 29.99 in 10.0 mi NW 21.9 mph 31.1 mph N/A   Overcast
2:55 AM 15.8 °F -1.9 °F 6.8 °F 68% 30.01 in 10.0 mi NW 21.9 mph 29.9 mph N/A   Overcast
3:15 AM 15.8 °F 0.3 °F 6.8 °F 68% 30.00 in 10.0 mi NW 16.1 mph 23.0 mph N/A   Overcast
3:35 AM 15.8 °F -1.9 °F 6.8 °F 68% 30.00 in 10.0 mi NW 21.9 mph - N/A   Overcast
3:55 AM 14.0 °F -4.3 °F 6.8 °F 73% 30.00 in 10.0 mi NW 21.9 mph - N/A   Overcast
4:15 AM 14.0 °F -2.5 °F 5.0 °F 67% 29.99 in 10.0 mi NW 17.3 mph 23.0 mph N/A   Overcast
4:35 AM 14.0 °F -2.5 °F 5.0 °F 67% 29.98 in 10.0 mi NW 17.3 mph - N/A   Overcast
4:55 AM 14.0 °F -3.0 °F 5.0 °F 67% 29.98 in 10.0 mi NW 18.4 mph - N/A   Overcast
5:15 AM 14.0 °F -2.0 °F 3.2 °F 62% 29.99 in 10.0 mi NW 16.1 mph - N/A   Overcast
5:35 AM 10.4 °F -7.7 °F 3.2 °F 73% 29.99 in 10.0 mi WNW 18.4 mph - N/A   Overcast
6:15 AM 6.8 °F -11.3 °F -0.4 °F 72% 29.99 in 10.0 mi WNW 16.1 mph - N/A   Scattered Clouds
6:35 AM 6.8 °F -10.7 °F -0.4 °F 72% 30.00 in 10.0 mi WNW 15.0 mph - N/A   Clear
6:55 AM 6.8 °F -11.3 °F -0.4 °F 72% 30.00 in 10.0 mi WNW 16.1 mph 23.0 mph N/A   Clear
7:15 AM 6.8 °F -12.4 °F -2.2 °F 67% 30.01 in 10.0 mi WNW 18.4 mph - N/A   Clear
7:35 AM 5.0 °F -13.6 °F -2.2 °F 72% 30.01 in 10.0 mi WNW 16.1 mph - N/A   Clear
7:55 AM 5.0 °F -13.0 °F -2.2 °F 72% 30.01 in 10.0 mi WNW 15.0 mph - N/A   Clear
8:15 AM 6.8 °F -9.3 °F -2.2 °F 67% 30.01 in 10.0 mi WNW 12.7 mph - N/A   Clear
8:35 AM 6.8 °F -6.9 °F -2.2 °F 67% 30.00 in 10.0 mi WNW 9.2 mph - N/A   Clear
8:55 AM 8.6 °F -6.3 °F -2.2 °F 62% 30.00 in 10.0 mi WNW 11.5 mph - N/A   Clear
9:15 AM 8.6 °F -5.5 °F -0.4 °F 67% 30.01 in 10.0 mi WNW 10.4 mph - N/A   Clear
9:35 AM 10.4 °F -4.1 °F -0.4 °F 62% 30.01 in 10.0 mi WNW 11.5 mph - N/A   Clear
9:55 AM 12.2 °F -3.1 °F -0.4 °F 57% 30.02 in 10.0 mi WNW 13.8 mph - N/A   Clear
10:15 AM 14.0 °F 1.2 °F -0.4 °F 53% 30.02 in 10.0 mi WNW 10.4 mph - N/A   Clear
10:35 AM 15.8 °F 6.1 °F -0.4 °F 49% 30.02 in 10.0 mi Variable 6.9 mph - N/A   Clear
10:55 AM 15.8 °F 6.1 °F 1.4 °F 53% 30.02 in 10.0 mi WNW 6.9 mph - N/A   Clear
11:15 AM 17.6 °F 7.3 °F 1.4 °F 49% 30.01 in 10.0 mi WNW 8.1 mph - N/A   Clear
11:35 AM 19.4 °F 9.5 °F 3.2 °F 49% 30.00 in 10.0 mi WNW 8.1 mph - N/A   Clear
11:55 AM 21.2 °F 10.9 °F 3.2 °F 46% 29.98 in 10.0 mi WNW 9.2 mph - N/A   Clear
12:15 PM 21.2 °F 10.9 °F 5.0 °F 50% 29.97 in 10.0 mi WNW 9.2 mph - N/A   Clear
12:35 PM 23.0 °F 11.7 °F 5.0 °F 46% 29.96 in 10.0 mi West 11.5 mph - N/A   Clear
12:55 PM 24.8 °F 14.0 °F 3.2 °F 40% 29.96 in 10.0 mi West 11.5 mph - N/A   Clear
1:15 PM 24.8 °F 14.0 °F 5.0 °F 43% 29.95 in 10.0 mi West 11.5 mph 17.3 mph N/A   Clear
1:35 PM 24.8 °F 13.4 °F 3.2 °F 40% 29.95 in 10.0 mi West 12.7 mph - N/A   Clear
1:55 PM 24.8 °F 12.9 °F 3.2 °F 40% 29.94 in 10.0 mi West 13.8 mph - N/A   Clear
2:15 PM 24.8 °F 13.4 °F 3.2 °F 40% 29.93 in 10.0 mi West 12.7 mph - N/A   Clear
2:35 PM 26.6 °F 16.8 °F 5.0 °F 40% 29.92 in 10.0 mi WSW 10.4 mph - N/A   Clear
2:55 PM 26.6 °F 16.2 °F 3.2 °F 37% 29.91 in 10.0 mi West 11.5 mph - N/A   Clear
3:15 PM 26.6 °F 17.5 °F 1.4 °F 34% 29.91 in 10.0 mi West 9.2 mph - N/A   Clear
3:35 PM 26.6 °F 18.2 °F 1.4 °F 34% 29.90 in 10.0 mi SW 8.1 mph - N/A   Clear
3:55 PM 26.6 °F 18.2 °F 1.4 °F 34% 29.91 in 10.0 mi WSW 8.1 mph - N/A   Clear
4:15 PM 24.8 °F 16.9 °F 1.4 °F 36% 29.90 in 10.0 mi SW 6.9 mph - N/A   Clear
4:35 PM 24.8 °F 17.9 °F 3.2 °F 40% 29.90 in 9.0 mi SSW 5.8 mph - N/A   Clear
4:55 PM 21.2 °F 14.9 °F 3.2 °F 46% 29.90 in 10.0 mi SSW 4.6 mph - N/A   Clear
5:15 PM 17.6 °F - 3.2 °F 53% 29.90 in 10.0 mi Calm Calm - N/A   Clear
5:35 PM 19.4 °F - 3.2 °F 49% 29.91 in 10.0 mi Calm Calm - N/A   Clear
5:55 PM 15.8 °F - 3.2 °F 58% 29.91 in 10.0 mi Calm Calm - N/A   Clear
6:15 PM 14.0 °F 2.9 °F 3.2 °F 62% 29.92 in 10.0 mi SW 8.1 mph - N/A   Clear
6:35 PM 15.8 °F 6.1 °F 3.2 °F 58% 29.92 in 10.0 mi SW 6.9 mph - N/A   Clear
6:55 PM 15.8 °F 6.1 °F 3.2 °F 58% 29.92 in 10.0 mi SW 6.9 mph - N/A   Clear
7:15 PM 14.0 °F 6.5 °F 5.0 °F 67% 29.92 in 10.0 mi South 4.6 mph - N/A   Clear
7:35 PM 14.0 °F 2.9 °F 5.0 °F 67% 29.91 in 10.0 mi SSW 8.1 mph - N/A   Clear
7:55 PM 15.8 °F 5.1 °F 5.0 °F 62% 29.91 in 10.0 mi SSW 8.1 mph - N/A   Clear
8:15 PM 15.8 °F 3.4 °F 5.0 °F 62% 29.90 in 10.0 mi SSW 10.4 mph - N/A   Clear
8:55 PM 14.0 °F 6.5 °F 5.0 °F 67% 29.90 in 10.0 mi South 4.6 mph - N/A   Clear
9:15 PM 15.8 °F 5.1 °F 6.8 °F 68% 29.89 in 10.0 mi SSW 8.1 mph - N/A   Scattered Clouds
9:35 PM 15.8 °F 2.7 °F 6.8 °F 68% 29.89 in 10.0 mi SSW 11.5 mph - N/A   Scattered Clouds
9:55 PM 17.6 °F 4.3 °F 6.8 °F 63% 29.89 in 10.0 mi SSW 12.7 mph - N/A   Partly Cloudy
10:15 PM 19.4 °F 5.0 °F 6.8 °F 58% 29.88 in 10.0 mi SSW 16.1 mph - N/A   Scattered Clouds
10:35 PM 19.4 °F 5.0 °F 6.8 °F 58% 29.88 in 10.0 mi SSW 16.1 mph 21.9 mph N/A   Overcast
10:55 PM 21.2 °F 8.3 °F 6.8 °F 54% 29.87 in 10.0 mi SSW 13.8 mph 19.6 mph N/A   Overcast
11:15 PM 21.2 °F 6.8 °F 6.8 °F 54% 29.87 in 10.0 mi SW 17.3 mph - N/A   Overcast
11:35 PM 23.0 °F 8.7 °F 6.8 °F 50% 29.87 in 10.0 mi SW 18.4 mph 24.2 mph N/A   Overcast
11:55 PM 23.0 °F 8.7 °F 6.8 °F 50% 29.86 in 10.0 mi SW 18.4 mph 25.3 mph N/A   Overcast